Location: Pella
(41.4080°N, 92.9160°W)
Time: 19:13:04
(UTC-06:00)

Daily predictions for brighter satellites

Satellite Brightness Start Highest point End
(mag) Time Altitude Azimuth Time Altitude Azimuth Time Altitude Azimuth
IDEFIX/ARIANE 42P 3.9 17:15:09 10° S 17:20:11 46° W 17:25:13 10° NNW
Lacrosse 4 Rocket 2.5 17:16:50 10° NW 17:20:47 48° WSW 17:24:39 10° S
Cosmos 1933 3.9 17:17:06 10° SSE 17:20:51 38° E 17:24:36 10° NNE
COSMOS 2406 3.6 17:17:03 10° N 17:22:30 41° ENE 17:27:52 10° SE
Cosmos 1340 3.1 17:24:49 10° SSE 17:28:21 40° E 17:31:56 10° NNE
Cosmos 1825 3.4 17:25:04 10° NNW 17:28:43 46° W 17:32:21 10° SSW
Cosmos 1346 Rocket 4.1 17:25:57 10° SSW 17:29:38 42° WNW 17:33:22 10° N
Cosmos 1869 Rocket 4.3 17:25:43 10° NNW 17:30:08 60° W 17:34:32 10° S
Cosmos 2016 Rocket 4.0 17:23:54 10° S 17:30:15 79° E 17:36:34 10° N
TSX-5 3.7 17:31:38 10° NNW 17:34:55 51° ENE 17:38:46 10° SE
Cosmos 1437 3.7 17:34:52 10° SSE 17:37:34 26° E 17:40:17 10° NE
Cosmos 2208 Rocket 3.9 17:33:05 10° NNW 17:38:18 71° ENE 17:43:31 10° SSE
Cosmos 1850 Rocket 4.1 17:33:32 10° SSW 17:38:44 83° WNW 17:43:57 10° NNE
Cosmos 1844 Rocket 2.7 17:35:52 10° SSW 17:41:28 69° ESE 17:47:05 10° NNE
Ariane Rocket 3.1 17:37:34 10° SSE 17:42:40 83° WSW 17:47:46 10° NNW
METEOR-M 4.5 17:38:15 10° SE 17:43:15 43° ENE 17:48:16 10° N
COSMO-SKYMED 1 3.3 17:39:51 10° NNE 17:43:45 31° E 17:47:37 10° SSE
Meteor 2-10 Rocket 3.7 17:41:08 10° SSW 17:46:15 80° W 17:51:38 10° N
YAOGAN 1 2.7 17:43:17 10° SSE 17:47:29 52° ENE 17:51:42 10° N
ERS-2 2.5 17:44:14 10° SE 17:47:43 41° ENE 17:51:12 10° N
SPOT 3 Rocket 4.1 17:43:07 10° SE 17:47:47 34° ENE 17:52:28 10° N
Cosmos 1741 Rocket 4.4 17:46:31 10° SSW 17:51:48 66° WNW 17:57:07 10° NNE
Cosmos 1862 4.0 17:48:33 10° NNW 17:52:30 57° W 17:56:27 10° S
ATLAS 3B R/B 4.5 17:47:04 10° W 17:52:50 25° NW 17:58:26 10° NNE
DNEPR-1 R/B 4.2 17:50:10 10° SW 17:54:32 52° NW 17:58:40 10° NNE
BREEZE-M R/B 3.4 17:52:17 10° NW 17:54:42 28° NNE 17:56:20 20° ENE
Cosmos 1844 3.7 17:51:55 10° SSW 17:57:38 71° ESE 18:03:26 10° NNE
Cosmos 371 Rocket 3.3 17:52:59 10° NNW 17:57:48 84° WSW 18:02:37 10° SSE
Cosmos 841 Rocket 4.3 17:53:40 10° N 17:58:15 29° ENE 18:02:49 10° ESE
Cosmos 1570 Rocket 4.5 17:53:56 10° NNW 17:59:16 68° WSW 18:04:32 10° S
Cosmos 1461 3.1 17:55:04 10° NNW 17:59:45 87° NE 18:04:30 10° SSE
Cosmos 1484 Rocket 3.8 17:58:34 10° S 18:02:15 49° W 18:06:02 10° NNW
Meteor 2-12 Rocket 4.4 17:58:47 10° S 18:04:54 89° E 18:11:01 10° N
Cosmos 2278 Rocket 2.7 18:00:16 10° S 18:05:28 39° ESE 18:09:25 17° NE
CZ-4C R/B 4.3 18:01:52 10° NNW 18:06:11 17° NNE 18:08:23 15° NE
USA 116 4.2 18:01:34 10° N 18:06:23 79° WNW 18:10:37 10° SSW
Cosmos 1782 4.0 18:03:45 10° SE 18:06:40 23° E 18:06:40 23° E
Cosmos 1833 Rocket 3.9 18:03:18 10° N 18:07:22 20° NE 18:07:52 20° ENE
USA 234 3.2 18:02:23 14° NE 18:08:16 87° SE 18:14:50 10° SW
Cosmos 1703 Rocket 4.2 18:05:35 10° SSE 18:09:34 33° E 18:12:01 19° NE
Cosmos 304 Rocket 4.1 18:05:27 10° N 18:10:03 42° ENE 18:14:36 10° SE
FENGYUN 3A 3.9 18:06:02 10° SE 18:11:10 46° ENE 18:16:20 10° N
CZ-4 R/B 4.4 18:08:20 10° SSE 18:12:29 88° WSW 18:16:41 10° NNW
SKYMED 3 4.5 18:09:29 10° NNE 18:13:49 68° ESE 18:18:08 10° S
BREEZE-M DEB (TANK) 3.7 18:12:56 10° W 18:15:04 33° NNW 18:16:05 25° NNE
Meteor 1-25 Rocket 4.3 18:11:00 10° N 18:16:46 57° ENE 18:22:28 10° SSE
EO 1 Del DPAF 3.1 18:15:13 10° NNE 18:19:04 80° ESE 18:22:52 10° S
BREEZE-M DEB (TANK) 3.6 18:12:27 10° WNW 18:20:53 57° SW 18:23:36 16° SE
Cosmos 2233 Rocket 3.9 18:14:46 10° S 18:21:04 87° E 18:27:20 10° N
Thor Agena Rocket 4.3 18:24:48 29° E 18:24:48 29° E 18:29:06 10° SSE
Cosmos 1606 3.4 18:21:29 10° SSE 18:24:11 33° ESE 18:24:11 33° ESE
COSMOS 2455 2.8 18:21:02 10° SSW 18:27:03 87° ESE 18:31:53 17° NNE
Sich 1 Rocket 3.6 18:24:23 10° N 18:28:43 56° E 18:33:04 10° SSE
Meteor 1-20 Rocket 4.1 18:23:31 10° N 18:29:06 65° ENE 18:34:33 10° SSE
SKYMED 2 3.7 18:27:33 10° N 18:31:54 75° WNW 18:36:13 10° SSW
Timation 1 Rocket 4.2 18:26:06 10° SSW 18:32:05 82° ESE 18:36:52 17° NNE
Cosmos 1908 Rocket 3.4 18:31:03 10° N 18:35:26 82° E 18:39:45 10° S
Meteor 1-10 Rocket 4.5 18:31:05 10° SSE 18:36:23 45° E 18:38:52 28° NE
ALOS 2.2 18:35:38 10° SSE 18:40:18 88° ENE 18:45:01 10° NNW
CZ-4 R/B 3.7 18:37:07 10° SSW 18:40:20 24° W 18:43:32 10° NW
Meteor 1-14 Rocket 4.4 18:37:56 10° NNW 18:43:39 73° W 18:49:12 10° S
Cosmos 2082 Rocket 2.8 18:39:42 10° N 18:44:18 35° NE 18:44:18 35° NE
GENESIS II 4.3 18:51:37 10° NW 18:55:22 75° W 18:55:22 75° W
Lacrosse 5 3.8 18:52:03 10° WNW 18:55:45 20° NNW 18:57:37 16° N
Cosmos 1891 Rocket 4.4 18:50:24 10° S 18:56:31 61° E 19:00:10 25° NNE
ERBS 3.9 18:53:33 10° NW 18:55:23 29° NW 18:55:23 29° NW
CENTAUR R/B 3.6 18:56:15 10° WSW 19:02:03 41° NW 19:06:55 17° NNE
CZ-3A R/B 3.8 18:50:09 10° NW 19:04:06 82° SW 19:07:24 30° SE
Cosmos 1072 Rocket 4.4 19:01:18 10° S 19:07:29 86° W 19:13:49 10° N
Cosmos 1763 Rocket 4.3 19:04:16 10° NNW 19:09:18 50° WSW 19:14:15 10° S
Cosmos 1503 Rocket 4.4 19:05:21 10° S 19:09:22 50° SSE 19:09:22 50° SSE
Cosmos 2034 Rocket 3.9 19:06:56 10° S 19:13:15 71° E 19:14:49 52° NNE
Okean 1-7 4.0 19:19:40 10° SSW 19:22:59 44° WSW 19:22:59 44° WSW
MOS 1-B Rocket 4.4 19:29:01 20° SSE 19:34:08 86° WSW 19:42:17 10° NNW
Cosmos 2297 4.5 19:33:02 10° SSW 19:36:49 44° SSW 19:36:49 44° SSW
Cosmos 2278 Rocket 3.7 19:44:35 10° WSW 19:49:36 31° WNW 19:51:19 27° NNW
USA 234 4.3 19:49:46 34° N 19:50:51 36° NNW 19:56:40 10° W
Cosmos 1833 Rocket 3.8 19:46:14 10° NNW 19:49:37 37° NW 19:49:37 37° NW
CZ-4C R/B 3.8 19:49:26 10° NNW 19:53:36 36° N 19:53:36 36° N
Cosmos 2082 Rocket 4.3 20:23:55 10° NW 20:26:12 22° WNW 20:26:12 22° WNW
